Weather History for New River MCAS, NC

Change the Weather History Date:

Saturday, January 11, 2014

  Actual Average Record
Temperature  
Mean Temperature 64 °F -  
Max Temperature 72 °F 54 °F 72 °F (2014)
Min Temperature 57 °F 33 °F 17 °F (2004)
Growing Degree Days 14 (Base 50)    
Moisture  
Dew Point 64 °F    
Average Humidity 91    
Maximum Humidity 97    
Minimum Humidity 81    
Precipitation  
Precipitation 0.43 in - - ()
Sea Level Pressure  
Sea Level Pressure 29.88 in    
Wind  
Wind Speed 12 mph (SSW)    
Max Wind Speed 30 mph    
Max Gust Speed 44 mph    
Visibility 9 miles    
Events Rain    
Averages and records for this station are not official NWS values.
T = Trace of Precipitation, MM = Missing Value Source: NWS Daily Summary

Daily Weather History Graph

Daily Weather History Graph

Search for Another Location

Airport:

Trip Planner

Search our weather history database for the weather conditions in past years. The results will help you decide how hot, cold, wet, or windy it might be!

Date:

Astronomy

Jan. 11, 2014 Rise Set
Actual Time 7:17 AM EST 5:18 PM EST
Civil Twilight 6:49 AM EST 5:45 PM EST
Nautical Twilight 6:18 AM EST 6:17 PM EST
Astronomical Twilight 5:48 AM EST 6:47 PM EST
Moon 1:59 PM EST (1/11) 3:22 AM EST (1/11)
Length of Visible Light 10h 56m
Length of Day
10h 01m
Waxing Gibbous, 83% of the Moon is Illuminated
Jan 11
Waxing Gibbous
Jan 15
Full
Jan 24
Last Quarter
Jan 30
New
Feb 6
First Quarter

Hourly Weather History & Observations

Time (EST) Temp. Dew Point Humidity Pressure Visibility Wind Dir Wind Speed Gust Speed Precip Events Conditions
12:05 AM 68.0 °F 66.9 °F 96% 30.11 in 2.5 mi South 10.4 mph - 0.07 in Rain Light Rain
12:13 AM 68.0 °F 66.0 °F 93% 30.10 in 10.0 mi South 15.0 mph 24.2 mph 0.07 in   Overcast
12:31 AM 68.0 °F 66.0 °F 93% 30.10 in 10.0 mi South 11.5 mph 19.6 mph 0.07 in   Mostly Cloudy
12:44 AM 66.9 °F 64.9 °F 93% 30.09 in 10.0 mi SSW 11.5 mph - 0.07 in   Scattered Clouds
12:56 AM 66.9 °F 64.9 °F 93% 30.10 in 10.0 mi SSW 10.4 mph - 0.07 in   Partly Cloudy
1:05 AM 66.0 °F 64.9 °F 96% 30.09 in 10.0 mi SSW 10.4 mph 17.3 mph N/A   Scattered Clouds
1:56 AM 64.9 °F 63.0 °F 93% 30.08 in 10.0 mi South 5.8 mph - N/A   Partly Cloudy
2:29 AM 64.9 °F 63.0 °F 93% 30.06 in 10.0 mi South 5.8 mph - N/A   Mostly Cloudy
2:56 AM 66.0 °F 64.0 °F 93% 30.06 in 10.0 mi South 11.5 mph - N/A   Mostly Cloudy
3:03 AM 66.0 °F 64.0 °F 93% 30.05 in 10.0 mi South 12.7 mph 19.6 mph N/A   Scattered Clouds
3:56 AM 66.0 °F 64.0 °F 93% 30.03 in 10.0 mi South 10.4 mph - N/A   Partly Cloudy
4:56 AM 66.0 °F 64.0 °F 93% 30.01 in 10.0 mi South 6.9 mph - N/A   Clear
5:26 AM 66.0 °F 64.0 °F 93% 30.00 in 10.0 mi South 8.1 mph - N/A   Mostly Cloudy
5:56 AM 66.9 °F 64.9 °F 93% 29.99 in 10.0 mi South 10.4 mph 17.3 mph N/A   Mostly Cloudy
7:30 AM 68.0 °F 66.0 °F 93% 29.96 in 2.5 mi SSW 16.1 mph 25.3 mph 0.03 in Rain Rain
7:38 AM 68.0 °F 66.0 °F 93% 29.97 in 3.0 mi SSW 13.8 mph 23.0 mph 0.04 in Rain Light Rain
7:47 AM 68.0 °F 66.0 °F 93% 29.97 in 9.0 mi South 15.0 mph 23.0 mph 0.04 in   Overcast
7:56 AM 66.9 °F 66.0 °F 97% 29.97 in 10.0 mi SSW 9.2 mph 20.7 mph 0.04 in   Overcast
8:17 AM 68.0 °F 66.0 °F 93% 29.96 in 10.0 mi SSW 8.1 mph - N/A   Overcast
8:35 AM 68.0 °F 66.0 °F 93% 29.96 in 10.0 mi SSW 9.2 mph - N/A   Overcast
8:56 AM 69.1 °F 66.0 °F 90% 29.96 in 10.0 mi SSW 12.7 mph - N/A   Overcast
9:39 AM 69.1 °F 66.9 °F 93% 29.94 in 10.0 mi SSW 11.5 mph 23.0 mph N/A   Overcast
9:56 AM 70.0 °F 66.9 °F 90% 29.94 in 10.0 mi SSW 12.7 mph 20.7 mph N/A   Overcast
10:11 AM 70.0 °F 66.9 °F 90% 29.93 in 10.0 mi SSW 17.3 mph 21.9 mph N/A   Overcast
10:53 AM 69.8 °F 66.2 °F 88% 29.91 in 10.0 mi South 17.3 mph 26.5 mph N/A   Overcast
10:56 AM 70.0 °F 66.9 °F 90% 29.91 in 10.0 mi SSW 15.0 mph 27.6 mph N/A   Overcast
11:14 AM 69.1 °F 66.9 °F 93% 29.89 in 9.0 mi SSW 16.1 mph 25.3 mph 0.00 in Rain Light Rain
11:56 AM 70.0 °F 66.9 °F 90% 29.86 in 9.0 mi South 15.0 mph 25.3 mph 0.00 in   Overcast
12:37 PM 70.0 °F 66.9 °F 90% 29.80 in 8.0 mi SSW 16.1 mph 26.5 mph 0.01 in Rain Light Rain
12:45 PM 70.0 °F 66.9 °F 90% 29.80 in 10.0 mi SSW 16.1 mph 24.2 mph 0.01 in Rain Light Rain
12:56 PM 70.0 °F 66.9 °F 90% 29.80 in 4.0 mi SSW 15.0 mph 24.2 mph 0.03 in Rain Rain
1:24 PM 70.0 °F 68.0 °F 93% 29.77 in 10.0 mi SSW 16.1 mph 24.2 mph 0.01 in   Mostly Cloudy
1:31 PM 71.1 °F 68.0 °F 90% 29.76 in 10.0 mi South 16.1 mph 24.2 mph 0.01 in   Mostly Cloudy
1:56 PM 71.1 °F 68.0 °F 90% 29.75 in 9.0 mi SSW 15.0 mph 29.9 mph 0.01 in   Overcast
2:10 PM 71.1 °F 68.0 °F 90% 29.73 in 10.0 mi South 16.1 mph 28.8 mph N/A   Overcast
2:56 PM 72.0 °F 66.0 °F 81% 29.74 in 10.0 mi SSW 16.1 mph 27.6 mph N/A   Overcast
3:06 PM 71.1 °F 66.0 °F 84% 29.73 in 10.0 mi South 15.0 mph 25.3 mph N/A   Overcast
3:35 PM 70.0 °F 66.0 °F 87% 29.73 in 10.0 mi South 13.8 mph 21.9 mph 0.00 in   Overcast
4:24 PM 70.0 °F 64.9 °F 84% 29.72 in 10.0 mi SSW 11.5 mph 27.6 mph N/A   Mostly Cloudy
4:56 PM 69.1 °F 63.0 °F 81% 29.77 in 10.0 mi West 29.9 mph 43.7 mph N/A   Mostly Cloudy
5:13 PM 61.0 °F 55.0 °F 81% 29.77 in 9.0 mi WNW 19.6 mph 33.4 mph 0.01 in Rain Light Rain
5:56 PM 57.9 °F 55.9 °F 93% 29.77 in 5.0 mi West 6.9 mph - 0.09 in Rain Light Rain
6:56 PM 57.9 °F 55.9 °F 93% 29.75 in 6.0 mi SW 4.6 mph - 0.04 in Rain Light Rain
7:56 PM 57.0 °F 55.9 °F 96% 29.73 in 5.0 mi South 3.5 mph - 0.14 in Rain Rain
8:56 PM 57.0 °F 55.9 °F 96% 29.68 in 10.0 mi SW 3.5 mph - 0.01 in Rain Light Rain
9:51 PM 57.2 °F 55.4 °F 94% 29.68 in 10.0 mi SW 6.9 mph - 0.00 in   Overcast
9:56 PM 57.0 °F 55.9 °F 96% 29.70 in 10.0 mi SW 8.1 mph - 0.00 in   Overcast
10:08 PM 57.9 °F 55.9 °F 93% 29.68 in 10.0 mi SW 9.2 mph - N/A   Mostly Cloudy
10:27 PM 57.9 °F 55.9 °F 93% 29.68 in 10.0 mi WSW 10.4 mph - N/A   Mostly Cloudy
10:56 PM 57.9 °F 55.9 °F 93% 29.69 in 10.0 mi SW 9.2 mph - N/A   Scattered Clouds
11:33 PM 57.9 °F 55.9 °F 93% 29.69 in 10.0 mi WSW 9.2 mph - N/A   Mostly Cloudy
11:56 PM 59.0 °F 55.9 °F 90% 29.70 in 10.0 mi WSW 11.5 mph - N/A   Scattered Clouds